STARLINK-4023 (53135 NORAD) Tracking and Keplerian Element Data

This shows tracking and keplerian element data for the satellite.

Feedback or suggestion? Click here.




ElementValue
Catalog53135
NameSTARLINK-4023
Epoch Orbit130
Epoch Day269.91667824
Epoch Year2022
RAAN69.4658
Inclination53.2166
Eccentricity0.0001921
Argument of Perigee43.802
Mean Anonmoly253.0008
Mean Motion15.08839456
Decay Rate-2.34E-06
L11 53135U 22083D 22269.91667824 -.00000234 00000+0 33733-5 0 9999
L22 53135 53.2166 69.4658 0001921 43.8020 253.0008 15.08839456 1301

Live tracking and technical data element details for STARLINK-4023 (NORAD 53135). STARLINK-4023 can be tracked NOW for your location showing map with azimuth and elevation plus other details from your city location.

Track the satellite on the map from your city or location and see movement details for azimuth, elevation, latitude, longitude, range, height, and movement on the map or in text.







IsCatalogInMostPopularTable: catalog: 53135, numindb: 5
Update: records affected: 1



GetName: 53135 STARLINK-4023

Hit Count: updated at: Thu, 29 Sep 2022 10:52:24 GMT